Location: Newark
(23.3970°S, 47.6010°W)
Time: 08:12:41
(UTC+00:00)

deb Explorer IX - Pass Details

Date: 20 February 2020
Orbit: 547 x 1100 km, 38.8° (Epoch: 06 April)

Event Time Altitude Azimuth Distance (km) Brightness Sun altitude
Rises 00:16:15 0° 317° (NW) 3,523 ? -32.5°
Reaches altitude 10° 00:18:44 10° 321° (NW) 2,661 ? -33.0°
Enters shadow 00:19:32 14° 323° (NW) 2,399 ? -33.1°
Maximum altitude 00:25:09 59° 38° (NE) 1,184 - -34.2°
Drops below altitude 10° 00:32:15 10° 116° (ESE) 2,943 - -35.6°
Sets 00:35:07 0° 119° (ESE) 3,921 - -36.1°
